Orbital Elements at Epoch 2459200.5 (2020-Dec-17.0) TDB
Reference: JPL 25 (heliocentric ecliptic J2000)
Element | Value | Uncertainty (1-sigma) | Units |
e | .1273353856438871 | 6.2367e-08 | |
a | 2.76621860049366 | 1.7492e-08 | au |
q | 2.413981088224506 | 1.6984e-07 | au |
i | 13.13812430757731 | 5.5519e-06 | deg |
node | 31.86016872755788 | 1.9991e-05 | deg |
peri | 335.5477743036954 | 2.687e-05 | deg |
M | 129.635324281315 | 1.8868e-05 | deg |
tp | 2458595.369517485706 (2019-Apr-21.86951749) | 8.6299e-05 | TDB |
period | 1680.459974261394 4.60 | 1.594e-05 4.364e-08 | d yr |
n | .2142270601584721 | 2.032e-09 | deg/d |
Q | 3.118456112762813 | 1.972e-08 | au |
|
| | Orbit Determination Parameters
Additional Information
|